TimeAKDT,TemperatureF,Dew PointF,Humidity,Sea Level PressureIn,VisibilityMPH,Wind Direction,Wind SpeedMPH,Gust SpeedMPH,PrecipitationIn,Events,Conditions,WindDirDegrees,DateUTC
12:16 AM,30.2,30.2,100,29.87,5.0,North,26.5,32.2,N/A,,Overcast,10,2014-06-08 08:16:00
12:36 AM,30.2,30.2,100,29.87,10.0,NNE,23.0,28.8,N/A,,Overcast,20,2014-06-08 08:36:00
12:56 AM,30.2,30.2,100,29.87,9.0,North,26.5,-,N/A,,Overcast,10,2014-06-08 08:56:00
1:16 AM,30.2,30.2,100,29.87,9.0,North,26.5,-,N/A,,Overcast,10,2014-06-08 09:16:00
1:36 AM,30.2,30.2,100,29.86,10.0,North,26.5,32.2,N/A,,Overcast,10,2014-06-08 09:36:00
1:56 AM,30.2,30.2,100,29.86,10.0,NNE,26.5,32.2,N/A,,Overcast,20,2014-06-08 09:56:00
2:16 AM,30.2,30.2,100,29.85,10.0,North,25.3,31.1,N/A,,Overcast,10,2014-06-08 10:16:00
2:36 AM,30.2,30.2,100,29.86,7.0,North,24.2,29.9,N/A,,Overcast,10,2014-06-08 10:36:00
2:56 AM,30.2,30.2,100,29.86,9.0,North,21.9,-,N/A,,Overcast,10,2014-06-08 10:56:00
3:36 AM,30.2,30.2,100,29.84,5.0,North,25.3,29.9,N/A,,Overcast,10,2014-06-08 11:36:00
3:56 AM,30.2,30.2,100,29.84,10.0,North,26.5,29.9,N/A,,Overcast,10,2014-06-08 11:56:00
4:16 AM,30.2,28.4,93,29.84,10.0,North,25.3,-,N/A,,Overcast,10,2014-06-08 12:16:00
4:36 AM,30.2,30.2,100,29.83,2.5,North,24.2,-,N/A,,Overcast,10,2014-06-08 12:36:00
4:56 AM,30.2,30.2,100,29.84,4.0,North,25.3,-,N/A,,Overcast,10,2014-06-08 12:56:00
5:16 AM,30.2,28.4,93,29.83,3.0,North,21.9,-,N/A,,Overcast,10,2014-06-08 13:16:00
5:36 AM,30.2,30.2,100,29.83,5.0,North,24.2,-,N/A,,Overcast,10,2014-06-08 13:36:00
5:56 AM,30.2,30.2,100,29.83,9.0,North,25.3,-,N/A,,Overcast,10,2014-06-08 13:56:00
6:36 AM,30.2,30.2,100,29.83,1.5,North,23.0,28.8,N/A,,Overcast,10,2014-06-08 14:36:00
6:56 AM,30.2,28.4,93,29.82,4.0,North,21.9,-,N/A,,Overcast,10,2014-06-08 14:56:00
7:16 AM,32.0,30.2,93,29.83,10.0,North,20.7,-,N/A,,Overcast,10,2014-06-08 15:16:00
7:36 AM,32.0,32.0,100,29.82,10.0,North,19.6,24.2,N/A,,Overcast,10,2014-06-08 15:36:00
7:56 AM,32.0,30.2,93,29.82,10.0,North,23.0,-,N/A,,Overcast,10,2014-06-08 15:56:00
8:16 AM,32.0,30.2,93,29.81,10.0,North,21.9,-,N/A,,Overcast,10,2014-06-08 16:16:00
8:36 AM,33.8,30.2,87,29.81,10.0,North,23.0,-,N/A,,Overcast,10,2014-06-08 16:36:00
8:56 AM,32.0,30.2,93,29.81,10.0,North,20.7,-,N/A,,Overcast,10,2014-06-08 16:56:00
9:36 AM,33.8,32.0,93,29.81,10.0,NNE,23.0,27.6,N/A,,Mostly Cloudy,20,2014-06-08 17:36:00
9:56 AM,33.8,30.2,87,29.81,10.0,North,20.7,-,N/A,,Overcast,10,2014-06-08 17:56:00
10:16 AM,33.8,30.2,87,29.81,10.0,North,21.9,-,N/A,,Overcast,10,2014-06-08 18:16:00
10:36 AM,33.8,30.2,87,29.82,10.0,North,20.7,-,N/A,,Overcast,10,2014-06-08 18:36:00
10:56 AM,33.8,30.2,87,29.81,10.0,North,21.9,-,N/A,,Overcast,10,2014-06-08 18:56:00
11:16 AM,33.8,30.2,87,29.81,10.0,North,21.9,-,N/A,,Overcast,10,2014-06-08 19:16:00
11:36 AM,33.8,30.2,87,29.81,9.0,North,24.2,-,N/A,,Overcast,10,2014-06-08 19:36:00
11:56 AM,33.8,30.2,87,29.81,10.0,North,23.0,-,N/A,,Overcast,10,2014-06-08 19:56:00
12:16 PM,35.6,30.2,81,29.81,10.0,North,23.0,-,N/A,,Overcast,10,2014-06-08 20:16:00
12:36 PM,35.6,32.0,87,29.81,10.0,North,23.0,-,N/A,,Overcast,10,2014-06-08 20:36:00
12:56 PM,33.8,30.2,87,29.80,9.0,North,20.7,-,N/A,,Overcast,360,2014-06-08 20:56:00
1:16 PM,33.8,30.2,87,29.81,10.0,North,21.9,-,N/A,,Overcast,360,2014-06-08 21:16:00
1:36 PM,35.6,32.0,87,29.81,10.0,North,21.9,-,N/A,,Overcast,10,2014-06-08 21:36:00
2:16 PM,35.6,32.0,87,29.80,10.0,North,21.9,-,N/A,,Mostly Cloudy,10,2014-06-08 22:16:00
2:36 PM,35.6,32.0,87,29.80,10.0,North,21.9,-,N/A,,Scattered Clouds,10,2014-06-08 22:36:00
2:56 PM,35.6,30.2,81,29.80,10.0,North,20.7,-,N/A,,Scattered Clouds,10,2014-06-08 22:56:00
3:16 PM,35.6,30.2,81,29.80,10.0,North,19.6,-,N/A,,Mostly Cloudy,360,2014-06-08 23:16:00
3:36 PM,35.6,32.0,87,29.80,9.0,North,19.6,-,N/A,,Overcast,360,2014-06-08 23:36:00
3:56 PM,35.6,33.8,93,29.80,10.0,North,21.9,-,N/A,,Overcast,360,2014-06-08 23:56:00
4:36 PM,35.6,32.0,87,29.80,10.0,North,19.6,-,N/A,,Mostly Cloudy,360,2014-06-09 00:36:00
4:56 PM,37.4,32.0,81,29.80,10.0,North,19.6,-,N/A,,Partly Cloudy,10,2014-06-09 00:56:00
5:36 PM,37.4,33.8,87,29.80,10.0,North,17.3,-,N/A,,Clear,360,2014-06-09 01:36:00
5:56 PM,37.4,33.8,87,29.79,10.0,North,18.4,-,N/A,,Clear,10,2014-06-09 01:56:00
6:16 PM,37.4,32.0,81,29.79,10.0,North,17.3,-,N/A,,Clear,360,2014-06-09 02:16:00
6:36 PM,35.6,32.0,87,29.79,10.0,North,19.6,-,N/A,,Clear,10,2014-06-09 02:36:00
6:56 PM,35.6,33.8,93,29.80,10.0,North,18.4,-,N/A,,Clear,10,2014-06-09 02:56:00
7:16 PM,35.6,33.8,93,29.80,10.0,North,18.4,-,N/A,,Partly Cloudy,10,2014-06-09 03:16:00
7:36 PM,35.6,32.0,87,29.80,4.0,North,19.6,-,N/A,,Mostly Cloudy,10,2014-06-09 03:36:00
7:56 PM,35.6,33.8,93,29.80,6.0,North,18.4,-,N/A,,Overcast,10,2014-06-09 03:56:00
8:16 PM,35.6,33.8,93,29.79,4.0,North,18.4,-,N/A,,Overcast,360,2014-06-09 04:16:00
8:36 PM,35.6,33.8,93,29.79,5.0,North,18.4,-,N/A,,Overcast,360,2014-06-09 04:36:00
8:56 PM,35.6,32.0,87,29.79,3.0,North,18.4,-,N/A,,Overcast,360,2014-06-09 04:56:00
9:16 PM,35.6,33.8,93,29.80,10.0,North,18.4,-,N/A,,Overcast,360,2014-06-09 05:16:00
9:36 PM,35.6,32.0,87,29.80,10.0,North,18.4,-,N/A,,Mostly Cloudy,10,2014-06-09 05:36:00
9:56 PM,35.6,32.0,87,29.80,10.0,North,18.4,-,N/A,,Overcast,10,2014-06-09 05:56:00
10:16 PM,35.6,32.0,87,29.80,10.0,North,16.1,-,N/A,,Scattered Clouds,10,2014-06-09 06:16:00
10:36 PM,35.6,32.0,87,29.80,10.0,North,16.1,-,N/A,,Clear,10,2014-06-09 06:36:00
10:56 PM,35.6,33.8,93,29.80,10.0,North,15.0,-,N/A,,Clear,360,2014-06-09 06:56:00
11:36 PM,33.8,32.0,93,29.81,1.8,North,17.3,-,N/A,,Overcast,10,2014-06-09 07:36:00
11:56 PM,33.8,32.0,93,29.80,1.0,North,17.3,-,N/A,,Overcast,10,2014-06-09 07:56:00